Wind_Speed
44 45 44 42 42 42 42 41 40 39 39 40 40 38 38 39 39 39 39 39 38 38 37 37 36 35 35 35 35 34 34 34 35 35 36 36 37 37 38 38 39 39 40 40
45 45 43 43 43 44 43 42 41 40 41 41 41 40 39 39 39 39 39 40 40 39 39 38 37 36 36 36 36 36 35 36 36 37 37 38 38 38 39 40 41 41 42 42
44 44 43 44 43 44 43 42 41 41 41 42 42 41 39 38 39 39 40 40 40 40 39 39 38 37 37 36 36 36 36 37 37 38 38 39 39 40 41 41 42 43 44 44
44 44 44 44 44 43 43 42 42 42 42 42 42 42 38 38 38 39 39 40 39 39 39 39 39 38 37 37 37 37 38 38 38 38 39 40 40 41 42 43 43 44 45 45
44 43 44 44 43 43 42 42 42 42 43 43 42 43 39 38 39 39 39 39 40 40 40 40 39 39 38 38 38 38 39 39 39 39 40 41 42 42 43 44 45 45 45 46
44 43 43 43 42 42 42 41 43 44 44 45 42 43 41 39 38 38 39 39 39 39 40 40 39 39 39 39 39 39 40 40 40 41 41 42 43 44 44 45 45 45 45 46
44 44 44 43 44 43 42 42 43 45 46 46 43 44 43 40 38 38 38 37 38 39 40 40 39 39 39 39 40 41 41 41 41 42 42 43 44 44 44 45 45 46 46 46
44 44 43 43 43 43 42 42 44 45 46 46 45 45 43 40 39 38 38 38 38 39 39 39 39 40 40 40 40 41 41 41 41 42 43 43 44 44 45 45 46 46 46 46
44 45 45 43 43 44 44 43 42 45 47 47 47 45 42 40 39 38 38 38 38 38 39 39 40 40 40 40 40 41 41 41 42 42 43 44 44 44 45 46 46 46 46 47
41 43 45 45 44 44 45 44 44 45 47 47 48 45 42 39 39 38 38 37 38 38 38 39 40 40 40 40 40 41 41 42 42 43 43 43 44 44 45 45 46 46 47 47
39 41 43 44 45 44 44 45 46 46 47 47 47 45 42 39 38 38 37 37 37 38 38 39 39 40 40 40 41 41 41 42 42 42 43 43 44 44 45 45 46 47 47 48
39 39 40 42 43 43 43 44 44 46 46 46 45 45 41 39 38 38 37 37 38 38 38 38 39 39 40 40 41 41 41 42 42 42 42 42 43 44 44 46 47 47 48 48
38 39 39 39 42 43 43 43 43 44 45 45 44 43 39 38 37 37 37 37 38 38 38 38 39 39 40 40 40 41 41 42 42 42 42 43 43 44 45 46 46 47 47 49
38 39 39 39 39 40 41 42 43 44 45 45 43 41 39 38 38 37 37 37 37 38 38 38 38 39 39 40 40 41 41 41 42 42 42 43 43 44 45 46 46 46 47 48
38 39 40 40 40 39 40 41 42 44 44 44 42 41 39 39 39 39 39 38 37 38 37 38 38 39 39 39 40 40 41 41 42 42 43 43 44 45 45 46 46 47 48 49
37 38 39 40 41 41 41 41 41 42 43 43 42 41 39 39 38 39 39 39 38 38 38 38 39 39 39 39 39 39 40 41 42 42 43 44 44 45 45 46 46 47 48 49
37 37 38 39 40 41 42 40 40 40 40 41 41 39 38 38 38 39 40 40 40 40 39 40 40 40 40 40 40 40 40 41 42 42 43 43 44 45 45 46 46 47 48 48
35 36 37 37 38 40 39 39 39 38 38 38 38 37 37 37 38 39 39 40 41 41 41 41 40 40 39 39 39 39 40 40 40 41 42 43 44 45 46 47 47 48 48 48
33 34 35 35 36 37 37 36 37 37 35 35 36 36 36 36 37 37 38 39 39 40 40 39 39 39 38 39 39 39 39 40 41 41 43 43 44 45 45 46 47 47 48 48
32 34 35 35 35 36 35 35 35 36 35 34 35 35 35 35 35 35 37 38 38 38 39 39 38 39 39 39 39 39 40 40 41 41 42 43 44 44 45 45 46 46 47 47
30 32 33 33 34 34 34 34 34 34 35 35 35 35 34 35 35 34 35 36 37 37 37 37 37 38 38 39 40 40 40 40 41 41 42 42 43 43 44 44 45 45 45 45
28 29 31 31 32 32 32 32 33 33 34 35 35 35 35 35 35 35 35 35 35 36 36 36 36 37 38 38 39 40 40 40 41 41 41 41 42 42 43 43 43 43 43 43
26 27 29 31 31 31 31 32 33 33 34 34 34 35 35 35 35 35 35 35 34 35 35 36 36 37 38 39 39 40 40 40 40 40 40 40 40 41 41 41 41 41 41 41
26 26 27 28 29 31 31 31 32 33 33 33 33 34 34 34 35 36 36 36 36 36 36 37 37 38 38 38 38 38 38 38 38 38 38 39 39 39 39 39 39 39 40 41
24 26 26 26 27 28 29 30 31 31 31 31 32 33 33 33 33 34 35 35 36 36 36 36 36 36 36 36 36 36 37 37 37 37 37 37 37 37 37 38 38 39 39 40
23 24 25 25 25 26 26 28 28 29 29 29 30 30 30 31 31 32 32 33 33 34 34 35 35 34 35 35 35 36 36 35 35 35 35 35 36 36 37 37 37 38 38 38
Wind_Direction
234 235 235 238 239 239 240 240 241 242 243 244 245 246 246 247 248 248 248 247 247 248 249 249 249 250 251 252 253 255 257 259 260 261 263 265 267 267 268 270 271 271 271 272
234 236 236 238 238 240 240 241 242 242 244 245 246 246 247 248 249 250 249 248 247 248 248 249 250 250 251 253 254 256 258 260 261 263 264 266 267 268 269 270 271 272 272 272
234 236 236 237 238 240 241 241 243 244 245 246 247 246 247 247 249 249 249 249 248 248 249 249 249 250 251 253 255 257 259 261 262 263 265 266 268 269 271 272 272 272 273 273
234 235 237 238 238 240 241 242 244 245 246 246 247 248 245 247 248 249 250 250 249 249 249 249 249 250 252 254 255 257 259 261 263 264 266 267 269 271 272 272 272 272 273 273
234 235 236 237 238 240 242 242 243 245 247 247 247 249 246 247 248 249 251 251 250 250 250 250 250 251 252 254 257 258 260 262 263 265 266 268 270 271 272 272 273 273 273 274
235 235 236 237 237 239 241 242 243 245 246 248 247 250 248 247 249 249 250 251 250 250 250 250 251 252 253 256 258 260 261 263 264 265 267 269 270 272 273 273 273 273 273 273
235 235 235 236 238 239 240 241 243 245 246 249 249 250 249 249 249 250 251 251 251 251 250 250 251 253 255 258 260 261 263 265 266 267 268 270 271 272 273 273 273 274 273 274
236 235 235 235 237 239 240 242 243 246 248 250 250 251 251 251 251 252 253 253 252 250 250 251 252 254 256 259 261 262 264 266 267 269 269 270 271 272 272 273 274 274 274 274
237 237 236 235 236 237 239 241 244 247 249 251 252 252 252 253 253 254 255 254 252 250 251 252 253 255 257 260 262 263 264 266 268 269 270 271 271 271 272 272 273 274 275 276
236 237 236 236 237 237 238 240 242 244 248 250 252 252 253 254 255 255 255 254 252 251 251 253 254 256 259 261 262 263 265 266 268 269 270 270 270 271 271 272 273 274 275 277
235 236 236 236 236 238 238 240 242 244 247 250 252 254 254 256 256 256 255 254 253 253 253 254 255 257 259 261 262 263 265 266 268 269 270 269 270 271 272 273 274 275 276 277
234 236 237 236 237 238 239 240 242 244 247 249 252 254 255 257 257 256 255 254 253 253 255 256 257 259 260 262 262 264 265 266 267 268 269 270 270 271 272 273 275 277 278 278
232 235 237 237 236 237 238 239 240 243 245 247 249 252 254 256 255 255 254 252 252 253 255 257 258 259 261 262 263 264 266 267 267 269 270 271 271 271 273 275 276 277 278 279
232 234 235 237 238 238 239 239 240 242 244 246 248 250 252 254 254 254 253 252 252 254 256 257 258 260 262 263 264 266 267 268 268 269 269 270 271 272 274 275 276 277 279 280
233 235 236 237 238 238 239 240 240 242 244 247 247 249 250 253 253 253 252 253 253 254 256 258 259 261 262 263 265 266 267 267 268 268 269 271 272 274 274 275 275 277 279 281
234 236 236 238 238 240 240 240 242 243 245 248 248 249 250 252 252 252 253 254 253 253 255 258 260 260 262 262 263 264 266 266 267 269 270 271 273 274 274 275 276 278 280 282
234 236 238 239 239 241 240 241 243 244 246 248 249 249 250 251 251 252 253 254 254 255 257 259 260 261 262 263 264 265 266 267 268 269 271 272 273 274 275 276 278 279 281 282
236 236 239 241 241 242 242 241 243 244 245 247 248 248 250 251 252 252 254 255 255 256 258 259 260 261 261 263 264 265 267 267 268 269 271 273 274 275 276 277 278 280 281 283
238 238 239 241 243 243 242 243 244 245 244 244 245 246 248 250 251 253 255 256 256 256 256 257 259 261 262 263 264 266 267 267 268 269 271 273 274 275 276 277 278 280 282 283
237 238 239 240 242 244 244 245 246 245 244 243 244 245 248 250 252 253 255 256 257 256 256 256 259 261 262 263 265 267 267 267 268 270 272 272 274 276 277 278 280 281 282 283
237 239 240 241 243 245 245 246 247 248 246 246 247 248 250 252 252 253 255 256 256 255 255 256 258 260 262 264 266 267 267 267 269 271 273 273 275 277 278 279 281 282 283 284
237 238 239 241 243 244 245 246 247 248 249 249 249 250 251 253 253 254 255 255 255 255 255 256 258 260 262 264 266 268 268 269 270 272 273 275 276 277 279 280 282 282 283 284
237 239 241 242 243 245 247 248 247 248 250 251 252 252 253 253 253 254 254 254 254 255 256 258 260 262 264 266 267 268 268 270 271 272 273 275 277 278 279 280 282 283 284 285
240 242 244 245 245 246 248 249 250 251 251 252 252 252 253 254 255 255 255 255 255 256 259 261 262 264 265 266 267 268 269 271 271 272 273 275 276 278 279 280 282 283 284 286
245 247 248 249 248 249 249 249 249 250 251 251 252 252 253 253 254 255 256 257 258 258 259 261 262 263 264 265 266 268 270 271 271 272 273 274 276 278 280 281 282 283 286 287
246 249 250 250 250 250 248 249 248 248 247 248 248 249 250 251 252 253 255 256 257 258 259 260 262 262 263 265 266 268 270 270 271 272 273 275 277 279 281 282 283 285 287 288
Height
5692 5698 5703 5708 5712 5716 5719 5723 5726 5730 5732 5734 5737 5740 5743 5745 5747 5749 5751 5754 5756 5758 5760 5762 5764 5766 5768 5770 5771 5773 5774 5775 5775 5776 5776 5777 5777 5777 5776 5776 5775 5775 5774 5774
5683 5688 5695 5698 5702 5705 5709 5713 5717 5721 5722 5724 5727 5731 5734 5735 5737 5740 5742 5744 5746 5749 5751 5753 5756 5758 5760 5762 5763 5765 5766 5766 5767 5767 5768 5768 5768 5767 5767 5766 5766 5765 5765 5764
5674 5681 5684 5688 5692 5696 5700 5705 5708 5711 5713 5714 5718 5721 5725 5726 5727 5729 5732 5734 5736 5739 5741 5744 5747 5749 5751 5753 5755 5756 5757 5757 5758 5758 5758 5758 5758 5758 5758 5757 5756 5755 5754 5753
5663 5669 5674 5678 5682 5687 5691 5695 5698 5701 5703 5705 5708 5710 5716 5717 5718 5720 5722 5724 5727 5729 5732 5734 5737 5740 5742 5744 5745 5747 5747 5748 5748 5748 5748 5748 5748 5748 5748 5746 5745 5744 5743 5742
5654 5660 5664 5668 5674 5677 5681 5685 5688 5691 5692 5695 5698 5700 5706 5708 5709 5711 5713 5715 5717 5720 5722 5725 5728 5730 5732 5734 5735 5737 5738 5738 5738 5738 5738 5738 5738 5737 5736 5735 5734 5733 5732 5731
5644 5649 5654 5659 5664 5667 5671 5675 5678 5679 5681 5685 5690 5690 5695 5698 5700 5702 5704 5705 5707 5710 5713 5715 5718 5720 5722 5724 5725 5727 5727 5728 5728 5728 5727 5727 5727 5726 5725 5724 5723 5722 5721 5720
5633 5638 5643 5649 5653 5657 5661 5665 5668 5669 5671 5675 5680 5680 5685 5689 5691 5693 5695 5696 5698 5700 5703 5705 5708 5710 5712 5714 5715 5716 5716 5717 5716 5716 5716 5716 5715 5714 5713 5712 5712 5711 5710 5709
5623 5628 5633 5638 5643 5648 5652 5655 5659 5661 5663 5666 5669 5670 5676 5680 5682 5683 5685 5687 5689 5691 5694 5696 5698 5701 5702 5704 5704 5705 5705 5705 5705 5705 5705 5704 5704 5703 5702 5701 5701 5700 5698 5697
5613 5618 5623 5628 5633 5637 5640 5644 5649 5651 5652 5655 5657 5661 5666 5670 5672 5674 5676 5678 5679 5682 5684 5687 5689 5690 5692 5693 5693 5694 5694 5694 5694 5694 5693 5693 5692 5692 5691 5690 5689 5688 5687 5686
5602 5607 5612 5617 5621 5625 5630 5635 5637 5639 5642 5645 5648 5652 5657 5660 5662 5664 5666 5668 5670 5673 5675 5677 5678 5680 5681 5682 5683 5683 5683 5683 5683 5683 5682 5682 5681 5680 5680 5679 5678 5677 5675 5673
5593 5597 5602 5606 5611 5616 5620 5624 5627 5630 5632 5636 5638 5645 5648 5651 5653 5655 5656 5658 5660 5663 5665 5666 5668 5670 5671 5671 5672 5672 5672 5672 5672 5671 5671 5670 5669 5669 5668 5667 5666 5665 5663 5661
5583 5587 5591 5596 5601 5605 5609 5613 5617 5621 5623 5626 5629 5636 5638 5641 5643 5644 5646 5648 5650 5652 5654 5656 5658 5659 5660 5660 5661 5661 5661 5661 5660 5660 5659 5659 5658 5657 5656 5655 5654 5652 5651 5649
5573 5578 5582 5586 5591 5594 5598 5602 5606 5610 5612 5615 5619 5627 5629 5630 5632 5634 5636 5638 5639 5642 5644 5646 5647 5648 5649 5649 5649 5650 5650 5650 5649 5649 5648 5648 5647 5646 5645 5644 5642 5640 5638 5636
5564 5568 5573 5577 5580 5585 5589 5593 5596 5599 5602 5605 5610 5616 5619 5620 5621 5623 5625 5627 5629 5631 5633 5635 5636 5637 5638 5638 5638 5639 5639 5638 5638 5638 5637 5637 5636 5635 5634 5632 5630 5628 5626 5624
5555 5559 5562 5567 5571 5574 5578 5582 5585 5588 5592 5596 5601 5605 5609 5609 5611 5613 5615 5617 5619 5621 5623 5624 5626 5626 5627 5627 5627 5628 5627 5627 5627 5626 5626 5625 5624 5623 5621 5620 5618 5616 5614 5612
5545 5550 5553 5557 5561 5564 5568 5572 5575 5579 5582 5585 5589 5594 5598 5599 5600 5603 5605 5606 5609 5610 5612 5614 5615 5616 5616 5617 5617 5617 5616 5616 5616 5615 5615 5614 5613 5611 5610 5608 5606 5604 5602 5599
5537 5541 5545 5548 5552 5554 5559 5564 5567 5570 5573 5576 5579 5585 5587 5588 5590 5592 5594 5596 5598 5600 5601 5603 5604 5605 5605 5606 5606 5606 5605 5605 5604 5604 5603 5602 5601 5599 5598 5596 5594 5592 5590 5587
5529 5533 5536 5539 5543 5546 5552 5555 5558 5560 5563 5566 5569 5573 5576 5578 5580 5581 5583 5585 5587 5589 5590 5592 5593 5594 5594 5595 5595 5595 5594 5594 5593 5592 5592 5590 5589 5588 5586 5584 5582 5580 5578 5575
5521 5524 5527 5531 5533 5536 5542 5546 5548 5551 5554 5557 5560 5563 5565 5568 5570 5572 5573 5574 5576 5578 5579 5580 5582 5583 5583 5584 5584 5584 5584 5583 5582 5581 5580 5579 5577 5576 5574 5572 5570 5568 5565 5562
5513 5516 5520 5522 5525 5529 5535 5537 5539 5542 5545 5548 5550 5553 5556 5558 5560 5563 5562 5564 5565 5567 5568 5570 5571 5572 5573 5573 5573 5573 5573 5572 5571 5570 5569 5568 5566 5564 5563 5560 5558 5555 5553 5550
5505 5508 5511 5514 5517 5521 5525 5527 5530 5535 5537 5539 5540 5543 5546 5548 5550 5552 5552 5554 5555 5557 5558 5560 5561 5562 5562 5562 5562 5562 5562 5561 5560 5559 5558 5557 5555 5553 5551 5549 5546 5543 5541 5538
5498 5500 5504 5506 5509 5515 5516 5518 5522 5523 5525 5528 5531 5533 5535 5538 5539 5541 5543 5544 5545 5547 5548 5549 5550 5551 5551 5552 5552 5551 5551 5550 5550 5549 5547 5546 5544 5542 5539 5537 5535 5532 5529 5526
5490 5494 5496 5499 5504 5505 5507 5509 5511 5513 5516 5518 5521 5524 5526 5528 5529 5531 5533 5534 5536 5537 5538 5539 5540 5540 5541 5541 5541 5540 5540 5539 5539 5538 5536 5534 5533 5531 5528 5526 5523 5521 5518 5515
5483 5486 5488 5491 5494 5496 5498 5500 5502 5504 5506 5509 5511 5514 5516 5518 5520 5521 5523 5524 5526 5527 5528 5529 5530 5530 5530 5530 5530 5530 5529 5529 5528 5527 5525 5524 5522 5520 5517 5515 5512 5510 5507 5504
5476 5478 5480 5483 5485 5487 5490 5491 5493 5495 5497 5500 5502 5504 5506 5508 5510 5511 5513 5514 5515 5517 5518 5519 5519 5520 5520 5520 5519 5519 5519 5518 5517 5516 5514 5513 5511 5509 5507 5504 5502 5499 5496 5493
5469 5471 5473 5475 5477 5479 5481 5483 5485 5487 5489 5491 5493 5495 5496 5498 5500 5501 5503 5504 5505 5506 5507 5508 5509 5509 5509 5509 5509 5509 5508 5507 5507 5505 5504 5502 5501 5499 5496 5494 5491 5488 5485 5482